This demonstration page uses our WeatherBlox Daily Observations layout. Learn more.

Left ArrowRight Arrow

Hourly Observations for May 1, 2016

Temp ( °F °C ) Dew Point ( °F °C ) Humidity (%) Winds ( mph kmh ) Pressure ( in mb ) Visibility ( mi km ) Precip ( " mm )
12:51 am 00:51 Partly Cloudy 54 12.2 43 6.1 67 67 W 9 15 29.67 1005 10 16 0.00 0.00
1:51 am 01:51 Mostly Clear 53 11.7 44 6.7 72 72 WNW 5 7 29.68 1005 10 16 0.00 0.00
2:51 am 02:51 Cloudy 52 11.1 43 6.1 72 72 N 3 6 29.69 1006 10 16 0.00 0.00
3:51 am 03:51 Mostly Cloudy 51 10.6 43 6.1 74 74 ENE 5 7 29.72 1006 10 16 0.00 0.00
4:51 am 04:51 Mostly Clear 48 8.9 41 5 77 77 S 5 7 29.74 1007 10 16 0.00 0.00
5:51 am 05:51 Sunny 47 8.3 39 3.9 74 74 ENE 5 7 29.76 1008 10 16 0.00 0.00
6:51 am 06:51 Sunny 52 11.1 41 5 66 66 S 6 9 29.78 1009 10 16 0.00 0.00
7:51 am 07:51 Sunny 58 14.4 42 5.6 56 56 SE 8 13 29.80 1009 10 16 0.00 0.00
8:51 am 08:51 Sunny 64 17.8 35 1.7 34 34 S 14 22 29.80 1009 10 16 0.00 0.00
9:51 am 09:51 Partly Cloudy 66 18.9 32 0 28 28 SSE 10 17 29.80 1009 10 16 0.00 0.00
10:51 am 10:51 Cloudy 67 19.4 31 -0.6 26 26 SE 14 22 29.79 1009 10 16 0.00 0.00
11:51 am 11:51 Mostly Cloudy 68 20 37 2.8 32 32 WSW 15 24 29.80 1009 10 16 0.00 0.00
12:51 pm 12:51 Cloudy 69 20.6 32 0 25 25 VRB 5 7 29.80 1009 10 16 0.00 0.00
1:51 pm 13:51 Mostly Cloudy 71 21.7 30 -1.1 22 22 VRB 7 11 29.80 1009 10 16 0.00 0.00
2:51 pm 14:51 Mostly Cloudy 74 23.3 30 -1.1 20 20 W 9 15 29.79 1009 10 16 0.00 0.00
3:51 pm 15:51 Mostly Sunny 75 23.9 31 -0.6 20 20 WNW 12 19 29.78 1008 10 16 0.00 0.00
4:51 pm 16:51 Partly Cloudy 73 22.8 32 0 22 22 NW 12 19 29.80 1009 10 16 0.00 0.00
5:51 pm 17:51 Sunny 72 22.2 32 0 23 23 W 13 20 29.81 1010 10 16 0.00 0.00
6:51 pm 18:51 Sunny 69 20.6 33 0.6 26 26 WNW 10 17 29.83 1010 10 16 0.00 0.00
7:51 pm 19:51 Clear 66 18.9 32 0 28 28 WNW 9 15 29.86 1011 10 16 0.00 0.00
8:51 pm 20:51 Clear 63 17.2 33 0.6 33 33 W 9 15 29.88 1012 10 16 0.00 0.00
9:51 pm 21:51 Clear 60 15.6 33 0.6 36 36 WNW 9 15 29.90 1013 10 16 0.00 0.00
10:51 pm 22:51 Clear 60 15.6 33 0.6 36 36 WNW 9 15 29.91 1013 10 16 0.00 0.00
11:51 pm 23:51 Clear 57 13.9 32 0 39 39 NNE 3 6 29.93 1014 10 16 0.00 0.00

Powered by AerisWeather